Regional Weather Roundup
Issued by NWS

Home | Current Version | Previous Version | Text Only | Print | Product List | Glossary On
Versions: 1 2 3 4 5 6 7 8 9 10 11 12 13 14 15 16 17 18 19 20 21 22 23 24 25 26 27 28 29 30 31 32 33 34 35 36 37 38 39 40 41 42 43 44 45 46 47 48 49 50
000
ASUS44 KLIX 050913
RWRLA
LOUISIANA WEATHER ROUNDUP
NATIONAL WEATHER SERVICE NEW ORLEANS LA
300 AM CST MON DEC 05 2016

NOTE: "FAIR" INDICATES FEW OR NO CLOUDS BELOW 12,000 FEET WITH NO
      SIGNIFICANT WEATHER AND/OR OBSTRUCTIONS TO VISIBILITY.
      SKY/WX - SKY CONDITION AND SIGNIFICANT WEATHER.
      TMP - AIR TEMPERATURE.    DP   - DEWPOINT TEMPERATURE.
      RH  - RELATIVE HUMIDITY.  PRES - PRESSURE.
      HX  - HEAT INDEX.         WCI  - WIND CHILL INDEX.

*  THESE STATIONS ARE NOT NWS OR FAA STATIONS AND ARE NOT UNDER
   NWS QUALITY CONTROL.

LAZ040-048-061>063-065-066-069-051000-
SOUTHEAST LOUISIANA

CITY           SKY/WX    TMP DP  RH WIND       PRES   REMARKS
N.O. AUDUBON   NOT AVBL
N.O. INTL ARPT CLOUDY    60  60 100 N7        29.92R
N.O. LAKEFRONT CLOUDY    61  60  97 N14       29.92R FOG
N.O. DOWNTOWN*   N/A     61  60  97 N6        29.93R FOG
RESERVE*       CLOUDY    58  56  94 N9        29.92F
SLIDELL        CLOUDY    59  58  96 N9        29.92R FOG
BATON ROUGE    CLOUDY    53  52  96 NE10      29.92S
BOOTHVILLE     CLEAR     65  65 100 SE9       29.86F
BELLE CHASSE   CLOUDY    62  62 100 N5        29.90R
BOGALUSA*      CLOUDY    57  54  88 N5        29.96R
GALLIANO*      CLOUDY    65  61  89 N7        29.89R
NEW ROADS*     CLOUDY    50  50  97 NE6       29.93F
GONZALES*      CLOUDY    56  56 100 NE3       29.91F FOG
HAMMOND*       CLOUDY    55  52  88 CALM      29.94R
HOUMA*         CLOUDY    62  61  99 N8        29.89S FOG
PORT FOURCHON* MOSUNNY   72  66  83 SE13G21   29.85S

$$

LAZ041-044-053-054-051000-
SOUTHWEST LOUISIANA

CITY           SKY/WX    TMP DP  RH WIND       PRES   REMARKS
LAKE CHARLES   CLOUDY    51  49  92 NE12      29.88F
LAFAYETTE      CLOUDY    52  51  97 NE12      29.91F
PATTERSON      FOG      N/A N/A N/A NE9       29.91S VSB 1
SALT POINT     NOT AVBL
NEW IBERIA     CLOUDY    54  51  90 N12       29.91S
CHENAULT AIRPK CLOUDY    50  49  98 NE10      29.89F

$$

LAZ027-028-051000-
CENTRAL LOUISIANA

CITY           SKY/WX    TMP DP  RH WIND       PRES   REMARKS
FORT POLK      LGT RAIN  48  46  93 VRB7      29.93S
ALEXANDRIA INT CLOUDY    48  46  93 NE8       29.95S
ALEXANDRIA     CLOUDY    48  47  96 NE5       29.96S

$$

LAZ001-002-051000-
NORTHWEST LOUISIANA

CITY           SKY/WX    TMP DP  RH WIND       PRES   REMARKS
SHREVEPORT     LGT RAIN  48  45  89 E6        30.00F
BARKSDALE AFB  LGT RAIN  46  46 100 N3        30.01F
DTN SHREVEPORT LGT RAIN  48  44  86 NE5       30.02R

$$

LAZ014-016-051000-
NORTHEAST LOUISIANA

CITY           SKY/WX    TMP DP  RH WIND       PRES   REMARKS
MONROE         MOCLDY    46  43  89 NE6       30.01R
TALLULAH       CLOUDY    48  45  89 NE8       30.00R

$$




USA.gov is the U.S. government's official web portal to all federal, state and local government web resources and services.